NOAA 16 DEB, 41067

Orbit data source: Space-Track

NOAA 16 DEB, 41067 is space debris in SSO originally from a launch on Thu, 21 Sep 2000 UTC launched from the Air Force Western Test Range (AFWTR). Debris objects in space refer to the collection of defunct objects orbiting the Earth. Examples of debris include non-operational satellites, rocket bodies, and fragments generated from explosions, collisions, or faulty payload assembly.

Loading next visibility...
Identifier
41067, 2000-055AA
Orbit
SSO
Country
Flag of USUS
Related business
Manufacturer
Unknown
Mission
Spacecraft
Bus & Motor
Unknown
Mass
Unknown
Launch date (UTC)
2000-09-21 (26 years ago)
Launch vehicle
Unknown
Launch site
Air Force Western Test Range (AFWTR)
Object type
Payload
Rocket body
Debris
Shape & HBR
Unknown shape, 0.1 m
Radar Cross Section
Medium (>0.1 m² and <1 m²)

Expand to show TLE details & history
Last TLE update: 2 days ago

TLE from 2 days ago
0 NOAA 16 DEB
1 41067U 00055AA  26171.31818903  .00000619  00000-0  32247-3 0  9995
2 41067  98.5172 204.6346 0002266 262.3055  97.7864 14.18055247545255
Epoch: 2026-06-20T07:38Z
TLE epoch observation values (Epoch: 2026-06-20T07:38:11.532Z)
Latitude
0.00002°
Longitude
-178.44799°
Altitude
835.077 km
Speed
7.435 km/s
True Right ascension
13h 38m 32s
True Declination
0° 00' 00"
Sunlit
Object was in daylight at epoch
Visualization orbit readout
Latitude
Unknown
Longitude
Unknown
Altitude
Unknown
Speed
Unknown
Apparent Right ascension
Unknown
Apparent Declination
Unknown
Sunlit
N/A
Visualization observer readout
Local Sidereal Time
21:58:20
Azimuth
Unknown
Elevation
Unknown
Doppler factor
Unknown
Orbital elements
Apogee altitude
830.723 km
Perigee altitude
827.456 km
Semi-major axis
7,207.226 km
Eccentricity
0.00023
Inclination
98.5172°
RAAN
204.6346°
Arg. of periapsis
262.3055°
True anomaly
97.81213°
Mean anomaly
97.7864°
Eccentric anomaly
97.79926°
Mean motion
3.54724 °/min
Orbital period
101.49 mins
BSTAR
0.00032247
Loading maneuver chart data...
Computing Atmospheric mass density...
Loading historical data...
Loading historical data...
Loading historical data...
Loading historical data...
Loading historical data...
Loading historical data...
Loading historical data...

Documentation

Showing up to 5 results
|